GW3736 Weather Reports


time (UTC)temp
F
wind
direction
speed
knots
gust
knots
rain 1hr
in
rain 24hr
in
rain mn
in
humidity
%
barometer
mb
20260505193516 54 252 3.5 7.0 0.00 0.23 0.14 72 1003.6
20260505192551 54 249 3.5 7.8 0.00 0.23 0.14 72 1003.8
20260505191527 54 238 2.6 7.8 0.00 0.23 0.14 73 1003.8
20260505190523 53 249 3.5 6.1 0.00 0.23 0.14 74 1003.6
20260505185519 53 239 3.5 8.7 0.00 0.23 0.14 76 1003.5
20260505184535 53 237 2.6 6.1 0.00 0.23 0.14 77 1003.3
20260505183531 53 232 1.7 3.5 0.01 0.23 0.14 77 1003.2
20260505182547 53 231 2.6 5.2 0.02 0.23 0.14 78 1003.1
20260505181523 53 196 1.7 3.5 0.03 0.23 0.14 77 1003.2
20260505180519 52 190 0.9 2.6 0.05 0.23 0.14 77 1003.2
20260505175535 52 141 1.7 2.6 0.06 0.23 0.14 76 1003.0
20260505174531 52 140 1.7 2.6 0.08 0.23 0.14 76 1003.0
20260505173527 52 219 0.9 1.7 0.09 0.22 0.13 75 1003.3
20260505172523 52 91 0.0 1.7 0.09 0.21 0.13 74 1003.2
20260505171539 52 84 0.9 1.7 0.08 0.20 0.11 73 1003.2
20260505170535 52 72 0.0 1.7 0.06 0.18 0.09 72 1003.5
20260505165531 53 66 0.0 0.9 0.04 0.17 0.08 71 1003.1
20260505164526 54 83 0.9 1.7 0.03 0.15 0.06 69 1003.1
20260505163522 54 82 0.0 1.7 0.01 0.13 0.04 67 1003.1
20260505162518 55 72 0.9 2.6 0.00 0.12 0.04 66 1002.9
20260505161615 55 73 0.9 2.6 0.00 0.12 0.04 67 1002.4
20260505160610 56 71 1.7 3.5 0.00 0.12 0.04 65 1002.6
20260505152535 56 77 2.6 6.1 0.00 0.12 0.04 63 1001.8
20260505151551 57 54 0.9 2.6 0.00 0.12 0.04 64 1001.9
20260505150527 56 55 0.9 5.2 0.00 0.12 0.04 63 1002.0
20260505140523 54 28 2.6 5.2 0.00 0.12 0.04 66 1000.9
20260505124531 60 243 3.5 9.6 0.00 0.12 0.04 72 999.2
20260505123527 60 266 5.2 11.3 0.00 0.12 0.04 73 999.8
20260505122523 59 260 2.6 5.2 0.00 0.12 0.04 74 999.5
20260505121519 59 258 3.5 7.8 0.00 0.12 0.04 74 999.6
20260505120535 59 238 2.6 6.1 0.00 0.12 0.04 74 999.3
20260505115551 59 259 4.3 7.8 0.00 0.12 0.04 75 999.4
20260505114527 59 251 3.5 7.0 0.00 0.12 0.04 75 999.2
20260505113603 59 269 3.5 7.8 0.00 0.12 0.04 75 998.9
20260505112539 58 270 5.2 12.2 0.00 0.12 0.04 75 998.5
20260505111615 58 264 3.5 8.7 0.00 0.12 0.04 75 998.3
20260505110531 58 264 5.2 9.6 0.00 0.12 0.04 76 998.2
20260505101550 59 258 4.3 8.7 0.00 0.12 0.04 76 997.2
20260505100527 59 250 5.2 12.2 0.00 0.12 0.04 76 997.1
20260505095522 59 246 6.1 13.0 0.00 0.12 0.04 76 997.0
20260505094519 59 258 7.0 14.8 0.00 0.12 0.04 76 996.9
20260505093555 59 257 7.0 13.0 0.00 0.12 0.04 77 996.7
20260505092530 59 256 7.0 13.0 0.00 0.12 0.04 77 996.8
20260505091527 59 245 6.1 11.3 0.00 0.12 0.04 77 996.6
20260505090522 59 261 6.1 13.9 0.00 0.12 0.04 77 996.7
20260505085519 59 250 5.2 14.8 0.00 0.12 0.04 77 996.8
20260505084534 59 247 4.3 9.6 0.00 0.12 0.04 77 996.6
20260505083551 59 255 6.1 12.2 0.00 0.12 0.04 77 996.5
20260505082526 59 239 5.2 11.3 0.00 0.12 0.04 77 996.4
20260505081522 59 257 5.2 11.3 0.00 0.12 0.04 77 996.3
20260505080538 60 252 5.2 12.2 0.00 0.12 0.04 76 996.1
20260505075534 60 250 5.2 9.6 0.00 0.12 0.04 76 995.8
20260505074530 60 253 5.2 9.6 0.00 0.12 0.04 76 995.3
20260505073546 60 244 3.5 7.8 0.00 0.12 0.04 76 994.9
20260505072542 60 254 4.3 8.7 0.00 0.12 0.04 76 995.3
20260505071518 60 256 4.3 11.3 0.00 0.12 0.04 76 995.4
20260505070534 60 258 5.2 9.6 0.00 0.12 0.04 76 995.5
20260505065531 60 266 5.2 11.3 0.00 0.12 0.04 76 995.4
20260505064526 60 257 4.3 8.7 0.00 0.12 0.04 76 995.8
20260505063522 60 263 4.3 7.8 0.00 0.12 0.04 76 995.9
20260505062518 59 252 4.3 8.7 0.00 0.12 0.04 77 995.7
20260505061534 59 249 3.5 7.0 0.03 0.12 0.04 77 995.4
20260505060530 59 226 3.5 7.8 0.04 0.12 0.04 75 995.5
20260505055525 60 226 2.6 7.8 0.04 0.12 0.04 75 995.8
20260505054521 60 226 1.7 7.8 0.04 0.12 0.04 74 996.1
20260505053517 61 265 4.3 7.8 0.04 0.12 0.04 73 995.9
20260505052533 63 269 6.1 13.0 0.04 0.12 0.04 72 996.3
20260505051529 65 253 11.3 26.1 0.00 0.09 0.00 66 996.7
20260505050525 65 263 7.8 15.6 0.00 0.09 0.00 66 996.5
20260505041525 59 251 4.3 13.0 0.00 0.09 0.00 76 996.1
20260505040520 59 202 1.7 5.2 0.00 0.09 0.00 76 995.8
20260505035516 59 162 2.6 3.5 0.00 0.09 0.09 76 995.9
20260505034532 59 163 3.5 7.0 0.00 0.09 0.09 75 995.9
20260505033529 60 165 3.5 7.8 0.00 0.09 0.09 75 996.0
20260505032524 60 178 3.5 7.8 0.00 0.09 0.09 74 996.3
20260505031520 61 159 3.5 7.8 0.00 0.09 0.09 72 996.6
20260505030516 62 181 4.3 11.3 0.02 0.09 0.09 73 996.6
20260505025532 62 224 3.5 7.0 0.02 0.09 0.09 74 996.6
20260505024608 61 228 3.5 7.0 0.05 0.09 0.09 75 996.6
20260505023524 61 258 2.6 6.1 0.05 0.09 0.09 75 996.5
20260505022520 61 247 2.6 8.7 0.06 0.09 0.09 75 996.6
20260505021516 61 267 1.7 5.2 0.07 0.08 0.08 75 996.6
20260505020552 61 199 2.6 6.1 0.07 0.07 0.07 74 996.6
20260505015528 61 260 2.6 11.3 0.07 0.07 0.07 74 996.5
20260505014524 62 184 1.7 7.0 0.04 0.04 0.04 72 996.6
20260505013520 63 173 0.9 1.7 0.03 0.04 0.04 71 996.4
20260505012536 63 179 0.9 3.5 0.02 0.02 0.02 70 996.6
20260505011532 63 303 2.6 5.2 0.00 0.01 0.01 71 996.6
20260505010527 63 262 3.5 8.7 0.00 0.00 0.00 70 996.3
20260505005523 63 268 2.6 7.8 0.00 0.00 0.00 69 996.3
20260505004519 63 241 2.6 7.8 0.00 0.00 0.00 69 996.1
20260505003556 63 255 4.3 8.7 0.00 0.00 0.00 68 995.9
20260505002531 63 256 3.5 7.8 0.00 0.00 0.00 66 995.7
20260505001527 65 236 5.2 13.0 0.00 0.00 0.00 62 995.9
20260505000523 67 214 5.2 19.1 0.00 0.00 0.00 58 995.3
20260504235518 68 138 2.6 5.2 0.00 0.00 0.00 56 995.1
20260504234535 69 151 3.5 6.1 0.00 0.00 0.00 54 995.2
20260504233531 72 148 4.3 8.7 0.00 0.00 0.00 51 995.2
20260504232527 73 169 5.2 9.6 0.00 0.00 0.00 48 995.1
20260504231523 74 228 4.3 13.0 0.00 0.00 0.00 48 994.9
20260504230519 74 228 5.2 9.6 0.00 0.00 0.00 48 994.9
20260504225535 73 237 5.2 13.9 0.00 0.00 0.00 48 995.1
20260504224531 72 189 2.6 9.6 0.00 0.00 0.00 49 995.5
20260504223527 71 172 4.3 9.6 0.00 0.00 0.00 51 995.5
20260504222523 71 161 4.3 9.6 0.00 0.00 0.00 51 995.6
20260504221519 71 164 2.6 7.8 0.00 0.00 0.00 50 995.7
20260504220535 71 190 4.3 8.7 0.00 0.00 0.00 49 995.9
20260504215531 72 178 4.3 9.6 0.00 0.00 0.00 48 995.9
20260504214527 72 170 4.3 11.3 0.00 0.00 0.00 46 996.0
20260504213523 73 166 4.3 12.2 0.00 0.00 0.00 45 996.3
20260504212519 73 185 5.2 13.9 0.00 0.00 0.00 46 996.4
20260504211515 72 178 3.5 9.6 0.00 0.00 0.00 46 996.3
20260504210552 72 186 6.1 13.0 0.00 0.00 0.00 47 996.4
20260504205547 72 201 6.1 13.9 0.00 0.00 0.00 46 996.5
20260504204524 71 158 5.2 12.2 0.00 0.00 0.00 47 996.6
20260504203519 72 200 6.1 14.8 0.00 0.00 0.00 46 996.7
20260504202515 72 164 6.1 20.9 0.00 0.00 0.00 44 996.6
20260504201531 73 168 7.0 15.6 0.00 0.00 0.00 43 996.6
20260504200527 75 179 5.2 12.2 0.00 0.00 0.00 41 996.7
20260504195523 75 236 4.3 12.2 0.00 0.00 0.00 37 996.7
20260504194519 75 218 6.1 15.6 0.00 0.00 0.00 38 996.7